| time (UTC) | temp F | wind direction | speed MPH | gust MPH | rain 1hr in | rain 24hr in | rain mn in | humidity % | barometer mb |
| 20260508053504 | 46 | 243 | 3.0 | 3.0 | 0.00 | 0.06 | 0.00 | 71 | 1017.4 |
| 20260508052503 | 46 | 253 | 3.0 | 5.0 | 0.00 | 0.06 | 0.00 | 72 | 1017.3 |
| 20260508052003 | 47 | 272 | 3.0 | 5.0 | 0.00 | 0.06 | 0.00 | 71 | 1017.2 |
| 20260508051503 | 47 | 263 | 5.0 | 5.0 | 0.00 | 0.06 | 0.00 | 71 | 1017.1 |
| 20260508050503 | 47 | 252 | 2.0 | 5.0 | 0.00 | 0.06 | 0.00 | 69 | 1017.1 |
| 20260508050003 | 47 | 303 | 5.0 | 5.0 | 0.00 | 0.06 | 0.00 | 71 | 1017.0 |
| 20260508045504 | 47 | 260 | 3.0 | 3.0 | 0.00 | 0.06 | 0.00 | 71 | 1016.9 |
| 20260508044504 | 48 | 268 | 3.0 | 3.0 | 0.00 | 0.06 | 0.00 | 70 | 1016.8 |
| 20260508044003 | 48 | 236 | 3.0 | 3.0 | 0.00 | 0.06 | 0.00 | 69 | 1016.8 |
| 20260508043503 | 48 | 289 | 3.0 | 6.0 | 0.00 | 0.06 | 0.00 | 69 | 1016.7 |
| 20260508042503 | 48 | 337 | 3.0 | 5.0 | 0.00 | 0.06 | 0.00 | 70 | 1016.7 |
| 20260508042004 | 48 | 280 | 5.0 | 5.0 | 0.00 | 0.06 | 0.00 | 69 | 1016.5 |
| 20260508041503 | 49 | 264 | 3.0 | 3.0 | 0.00 | 0.06 | 0.00 | 69 | 1016.5 |
| 20260508041004 | 49 | 279 | 3.0 | 3.0 | 0.00 | 0.06 | 0.00 | 68 | 1016.5 |
| 20260508040503 | 49 | 285 | 2.0 | 5.0 | 0.00 | 0.06 | 0.00 | 68 | 1016.5 |
| 20260508040003 | 49 | 253 | 1.0 | 5.0 | 0.00 | 0.06 | 0.00 | 67 | 1016.3 |
| 20260508035503 | 50 | 172 | 0.0 | 0.0 | 0.00 | 0.06 | 0.06 | 67 | 1016.2 |
| 20260508035004 | 50 | 172 | 0.0 | 2.0 | 0.00 | 0.06 | 0.06 | 66 | 1016.1 |
| 20260508034503 | 50 | 181 | 0.0 | 2.0 | 0.00 | 0.06 | 0.06 | 65 | 1016.1 |
| 20260508033503 | 50 | 233 | 1.0 | 3.0 | 0.00 | 0.06 | 0.06 | 66 | 1016.2 |
| 20260508032504 | 50 | 173 | 3.0 | 5.0 | 0.00 | 0.06 | 0.06 | 66 | 1016.2 |
| 20260508032004 | 50 | 290 | 2.0 | 3.0 | 0.00 | 0.06 | 0.06 | 65 | 1016.1 |
| 20260508031504 | 50 | 264 | 2.0 | 3.0 | 0.00 | 0.07 | 0.06 | 68 | 1016.0 |
| 20260508030503 | 50 | 201 | 3.0 | 5.0 | 0.00 | 0.07 | 0.06 | 67 | 1016.0 |
| 20260508030004 | 50 | 249 | 1.0 | 3.0 | 0.00 | 0.07 | 0.06 | 68 | 1015.9 |
| 20260508025503 | 50 | 261 | 2.0 | 5.0 | 0.00 | 0.07 | 0.06 | 67 | 1015.9 |
| 20260508025004 | 50 | 293 | 2.0 | 7.0 | 0.00 | 0.07 | 0.06 | 68 | 1015.8 |
| 20260508024504 | 50 | 318 | 2.0 | 5.0 | 0.00 | 0.07 | 0.06 | 67 | 1015.8 |
| 20260508024004 | 50 | 243 | 2.0 | 3.0 | 0.00 | 0.07 | 0.06 | 69 | 1015.8 |
| 20260508023503 | 51 | 264 | 5.0 | 3.0 | 0.00 | 0.07 | 0.06 | 69 | 1015.8 |
| 20260508023003 | 51 | 292 | 2.0 | 5.0 | 0.00 | 0.09 | 0.06 | 68 | 1015.7 |
| 20260508022503 | 51 | 260 | 3.0 | 3.0 | 0.00 | 0.11 | 0.06 | 68 | 1015.7 |
| 20260508022004 | 51 | 290 | 4.0 | 5.0 | 0.00 | 0.12 | 0.06 | 67 | 1015.5 |
| 20260508021503 | 52 | 195 | 2.0 | 3.0 | 0.00 | 0.12 | 0.06 | 66 | 1015.5 |
| 20260508021004 | 52 | 198 | 3.0 | 5.0 | 0.00 | 0.13 | 0.06 | 65 | 1015.4 |
| 20260508020504 | 52 | 218 | 0.0 | 2.0 | 0.00 | 0.13 | 0.06 | 65 | 1015.3 |
| 20260508020003 | 52 | 279 | 0.0 | 2.0 | 0.00 | 0.13 | 0.06 | 64 | 1015.2 |
| 20260508015504 | 52 | 282 | 1.0 | 10.0 | 0.00 | 0.13 | 0.06 | 63 | 1015.1 |
| 20260508015004 | 52 | 290 | 1.0 | 3.0 | 0.00 | 0.13 | 0.06 | 65 | 1015.0 |
| 20260508014504 | 52 | 167 | 1.0 | 3.0 | 0.00 | 0.13 | 0.06 | 65 | 1014.9 |
| 20260508014003 | 52 | 219 | 0.0 | 3.0 | 0.00 | 0.13 | 0.06 | 64 | 1014.7 |
| 20260508013504 | 52 | 189 | 2.0 | 3.0 | 0.01 | 0.13 | 0.06 | 67 | 1014.6 |
| 20260508013004 | 52 | 180 | 1.0 | 2.0 | 0.01 | 0.13 | 0.06 | 67 | 1014.5 |
| 20260508012503 | 53 | 270 | 0.0 | 3.0 | 0.01 | 0.13 | 0.06 | 66 | 1014.5 |
| 20260508012004 | 53 | 235 | 2.0 | 5.0 | 0.01 | 0.13 | 0.06 | 65 | 1014.4 |
| 20260508011504 | 53 | 203 | 1.0 | 5.0 | 0.01 | 0.13 | 0.06 | 64 | 1014.5 |
| 20260508011003 | 53 | 294 | 3.0 | 6.0 | 0.01 | 0.13 | 0.06 | 62 | 1014.4 |
| 20260508010503 | 54 | 201 | 2.0 | 5.0 | 0.01 | 0.13 | 0.06 | 61 | 1014.2 |
| 20260508010004 | 54 | 293 | 5.0 | 9.0 | 0.01 | 0.13 | 0.06 | 58 | 1014.2 |
| 20260508005504 | 55 | 140 | 0.0 | 0.0 | 0.01 | 0.13 | 0.06 | 59 | 1014.2 |
| 20260508005004 | 55 | 152 | 2.0 | 6.0 | 0.01 | 0.13 | 0.06 | 58 | 1014.1 |
| 20260508004503 | 55 | 1 | 1.0 | 8.0 | 0.01 | 0.13 | 0.06 | 57 | 1014.2 |
| 20260508003504 | 55 | 217 | 1.0 | 5.0 | 0.00 | 0.12 | 0.05 | 55 | 1014.1 |
| 20260508003005 | 55 | 242 | 6.0 | 10.0 | 0.00 | 0.12 | 0.05 | 56 | 1014.2 |
| 20260508002504 | 55 | 292 | 2.0 | 7.0 | 0.00 | 0.12 | 0.05 | 56 | 1014.0 |
| 20260508002003 | 55 | 224 | 7.0 | 14.0 | 0.00 | 0.12 | 0.05 | 55 | 1014.1 |
| 20260508001504 | 56 | 254 | 3.0 | 6.0 | 0.00 | 0.12 | 0.05 | 54 | 1014.0 |
| 20260508001004 | 56 | 312 | 6.0 | 10.0 | 0.00 | 0.12 | 0.05 | 53 | 1014.0 |
| 20260508000504 | 56 | 336 | 8.0 | 12.0 | 0.00 | 0.12 | 0.05 | 54 | 1014.0 |
| 20260507235503 | 56 | 5 | 4.0 | 8.0 | 0.00 | 0.12 | 0.05 | 53 | 1013.8 |
| 20260507234504 | 57 | 294 | 3.0 | 9.0 | 0.00 | 0.12 | 0.05 | 53 | 1013.7 |
| 20260507234004 | 57 | 283 | 6.0 | 16.0 | 0.00 | 0.12 | 0.05 | 52 | 1013.6 |
| 20260507233504 | 57 | 235 | 4.0 | 14.0 | 0.00 | 0.12 | 0.05 | 53 | 1013.6 |
| 20260507233003 | 57 | 222 | 5.0 | 12.0 | 0.00 | 0.12 | 0.05 | 55 | 1013.5 |
| 20260507232503 | 57 | 70 | 3.0 | 8.0 | 0.00 | 0.12 | 0.05 | 56 | 1013.4 |
| 20260507231504 | 58 | 273 | 2.0 | 6.0 | 0.00 | 0.12 | 0.05 | 54 | 1013.3 |
| 20260507230504 | 58 | 170 | 0.0 | 5.0 | 0.00 | 0.12 | 0.05 | 55 | 1013.2 |
| 20260507230003 | 59 | 321 | 1.0 | 10.0 | 0.00 | 0.12 | 0.05 | 55 | 1013.1 |
| 20260507225504 | 59 | 217 | 5.0 | 13.0 | 0.00 | 0.12 | 0.05 | 54 | 1013.0 |
| 20260507225004 | 59 | 176 | 4.0 | 6.0 | 0.00 | 0.12 | 0.05 | 57 | 1013.0 |
| 20260507224504 | 59 | 188 | 5.0 | 7.0 | 0.00 | 0.12 | 0.05 | 55 | 1012.8 |
| 20260507224004 | 59 | 135 | 6.0 | 7.0 | 0.00 | 0.12 | 0.05 | 56 | 1012.8 |
| 20260507222503 | 59 | 289 | 6.0 | 9.0 | 0.00 | 0.12 | 0.05 | 56 | 1012.7 |
| 20260507222004 | 59 | 237 | 3.0 | 9.0 | 0.00 | 0.12 | 0.05 | 57 | 1012.7 |
| 20260507220504 | 59 | 62 | 6.0 | 9.0 | 0.00 | 0.12 | 0.05 | 60 | 1012.4 |
| 20260507220004 | 59 | 119 | 2.0 | 5.0 | 0.00 | 0.12 | 0.05 | 60 | 1012.3 |
| 20260507215504 | 59 | 227 | 3.0 | 12.0 | 0.00 | 0.12 | 0.05 | 62 | 1012.2 |
| 20260507214503 | 59 | 77 | 1.0 | 6.0 | 0.00 | 0.12 | 0.05 | 63 | 1012.1 |
| 20260507214003 | 59 | 0 | 4.0 | 6.0 | 0.00 | 0.12 | 0.05 | 68 | 1012.2 |
| 20260507213504 | 59 | 13 | 0.0 | 0.0 | 0.00 | 0.12 | 0.05 | 70 | 1012.3 |
| 20260507212004 | 58 | 202 | 0.0 | 2.0 | 0.00 | 0.12 | 0.05 | 70 | 1012.3 |
| 20260507211504 | 58 | 209 | 0.0 | 0.0 | 0.00 | 0.13 | 0.05 | 70 | 1012.3 |
| 20260507211003 | 58 | 209 | 0.0 | 0.0 | 0.00 | 0.13 | 0.05 | 69 | 1012.3 |
| 20260507210504 | 58 | 209 | 0.0 | 5.0 | 0.00 | 0.13 | 0.05 | 68 | 1012.2 |
| 20260507210005 | 58 | 213 | 2.0 | 7.0 | 0.00 | 0.13 | 0.05 | 69 | 1012.2 |
| 20260507205004 | 58 | 191 | 5.0 | 7.0 | 0.00 | 0.13 | 0.05 | 68 | 1012.0 |
| 20260507204504 | 58 | 160 | 1.0 | 5.0 | 0.00 | 0.13 | 0.05 | 69 | 1011.9 |
| 20260507203504 | 58 | 191 | 4.0 | 8.0 | 0.00 | 0.13 | 0.05 | 71 | 1011.9 |
| 20260507202504 | 58 | 196 | 6.0 | 8.0 | 0.00 | 0.13 | 0.05 | 73 | 1011.9 |
| 20260507201504 | 57 | 329 | 0.0 | 3.0 | 0.00 | 0.13 | 0.05 | 72 | 1012.0 |
| 20260507201004 | 57 | 25 | 0.0 | 0.0 | 0.00 | 0.13 | 0.05 | 71 | 1012.1 |
| 20260507200504 | 57 | 25 | 1.0 | 6.0 | 0.00 | 0.13 | 0.05 | 70 | 1012.2 |
| 20260507200004 | 57 | 175 | 5.0 | 6.0 | 0.00 | 0.13 | 0.05 | 72 | 1012.4 |
| 20260507195503 | 57 | 239 | 3.0 | 8.0 | 0.00 | 0.13 | 0.05 | 73 | 1012.5 |
| 20260507195004 | 57 | 246 | 3.0 | 10.0 | 0.00 | 0.13 | 0.05 | 73 | 1012.6 |
| 20260507194004 | 57 | 203 | 3.0 | 6.0 | 0.00 | 0.13 | 0.05 | 75 | 1013.0 |
| 20260507193504 | 56 | 232 | 1.0 | 5.0 | 0.00 | 0.13 | 0.05 | 76 | 1013.0 |
| 20260507193004 | 56 | 205 | 0.0 | 5.0 | 0.00 | 0.13 | 0.05 | 74 | 1013.2 |
| 20260507192503 | 56 | 34 | 0.0 | 5.0 | 0.00 | 0.13 | 0.05 | 75 | 1013.2 |
| 20260507191504 | 56 | 244 | 6.0 | 10.0 | 0.00 | 0.13 | 0.05 | 74 | 1013.4 |
| 20260507191004 | 56 | 187 | 5.0 | 7.0 | 0.00 | 0.13 | 0.05 | 76 | 1013.3 |
| 20260507190504 | 56 | 181 | 0.0 | 2.0 | 0.00 | 0.13 | 0.05 | 77 | 1013.3 |
| 20260507190005 | 56 | 165 | 0.0 | 5.0 | 0.00 | 0.13 | 0.05 | 78 | 1013.4 |
| 20260507185504 | 56 | 136 | 0.0 | 2.0 | 0.01 | 0.13 | 0.05 | 81 | 1013.5 |
| 20260507185004 | 55 | 126 | 0.0 | 0.0 | 0.01 | 0.13 | 0.05 | 81 | 1013.6 |
| 20260507184504 | 55 | 126 | 0.0 | 0.0 | 0.01 | 0.13 | 0.05 | 80 | 1013.6 |
| 20260507183504 | 56 | 126 | 0.0 | 0.0 | 0.01 | 0.13 | 0.05 | 80 | 1013.6 |
| 20260507183003 | 55 | 126 | 0.0 | 0.0 | 0.01 | 0.13 | 0.05 | 81 | 1013.7 |
| 20260507182502 | 55 | 151 | 1.0 | 1.0 | 0.01 | 0.13 | 0.05 | 80 | 1013.6 |
| 20260507182002 | 55 | 123 | 0.0 | 0.0 | 0.01 | 0.13 | 0.05 | 81 | 1013.6 |
| 20260507181502 | 55 | 123 | 0.0 | 0.0 | 0.01 | 0.13 | 0.05 | 81 | 1013.5 |
| 20260507181002 | 55 | 123 | 0.0 | 1.0 | 0.01 | 0.13 | 0.05 | 81 | 1013.5 |
| 20260507180502 | 55 | 167 | 1.0 | 2.0 | 0.04 | 0.13 | 0.05 | 80 | 1013.6 |
| 20260507180002 | 55 | 185 | 0.0 | 0.0 | 0.05 | 0.13 | 0.05 | 81 | 1013.6 |
| 20260507175503 | 55 | 185 | 0.0 | 0.0 | 0.04 | 0.12 | 0.04 | 82 | 1013.6 |
| 20260507175003 | 55 | 182 | 1.0 | 3.0 | 0.04 | 0.12 | 0.04 | 83 | 1013.7 |
| 20260507174003 | 55 | 297 | 0.0 | 3.0 | 0.04 | 0.12 | 0.04 | 81 | 1013.7 |
| 20260507173503 | 54 | 255 | 0.0 | 3.0 | 0.04 | 0.12 | 0.04 | 82 | 1013.7 |
| 20260507172503 | 54 | 275 | 2.0 | 3.0 | 0.04 | 0.12 | 0.04 | 81 | 1013.8 |
| 20260507171503 | 55 | 62 | 0.0 | 0.0 | 0.04 | 0.12 | 0.04 | 80 | 1013.6 |
| 20260507171002 | 55 | 62 | 1.0 | 7.0 | 0.04 | 0.12 | 0.04 | 78 | 1013.8 |
| 20260507170002 | 55 | 61 | 5.0 | 9.0 | 0.00 | 0.08 | 0.00 | 76 | 1013.7 |
| 20260507165503 | 55 | 105 | 4.0 | 6.0 | 0.00 | 0.08 | 0.00 | 75 | 1013.8 |
| 20260507165003 | 55 | 324 | 2.0 | 7.0 | 0.00 | 0.08 | 0.00 | 75 | 1013.8 |
| 20260507164502 | 55 | 113 | 3.0 | 7.0 | 0.00 | 0.09 | 0.00 | 74 | 1013.8 |
| 20260507164003 | 55 | 32 | 3.0 | 6.0 | 0.00 | 0.09 | 0.00 | 74 | 1013.8 |
| 20260507163503 | 55 | 41 | 2.0 | 6.0 | 0.00 | 0.09 | 0.00 | 74 | 1013.6 |
| 20260507162502 | 55 | 49 | 0.0 | 7.0 | 0.00 | 0.09 | 0.00 | 74 | 1013.8 |
| 20260507162002 | 56 | 81 | 1.0 | 8.0 | 0.00 | 0.09 | 0.00 | 75 | 1013.7 |
| 20260507161503 | 56 | 90 | 1.0 | 5.0 | 0.00 | 0.09 | 0.00 | 74 | 1013.6 |
| 20260507161003 | 56 | 259 | 2.0 | 5.0 | 0.00 | 0.09 | 0.00 | 75 | 1013.7 |
| 20260507160003 | 56 | 17 | 3.0 | 6.0 | 0.00 | 0.09 | 0.00 | 75 | 1013.8 |
| 20260507155503 | 56 | 151 | 4.0 | 9.0 | 0.00 | 0.09 | 0.00 | 75 | 1013.8 |
| 20260507155003 | 56 | 59 | 5.0 | 7.0 | 0.00 | 0.09 | 0.00 | 75 | 1013.9 |
| 20260507154503 | 56 | 81 | 3.0 | 5.0 | 0.00 | 0.09 | 0.00 | 76 | 1014.0 |
| 20260507154002 | 56 | 75 | 2.0 | 3.0 | 0.00 | 0.09 | 0.00 | 77 | 1014.1 |
| 20260507153502 | 56 | 28 | 1.0 | 5.0 | 0.00 | 0.09 | 0.00 | 76 | 1014.1 |
| 20260507153002 | 56 | 133 | 0.0 | 0.0 | 0.00 | 0.09 | 0.00 | 76 | 1014.1 |
| 20260507152502 | 56 | 133 | 1.0 | 5.0 | 0.00 | 0.09 | 0.00 | 76 | 1014.1 |
| 20260507152003 | 56 | 50 | 6.0 | 7.0 | 0.00 | 0.09 | 0.00 | 76 | 1014.0 |
| 20260507151502 | 56 | 18 | 1.0 | 6.0 | 0.00 | 0.09 | 0.00 | 77 | 1014.0 |
| 20260507151002 | 56 | 90 | 3.0 | 7.0 | 0.00 | 0.09 | 0.00 | 77 | 1014.0 |
| 20260507150003 | 56 | 113 | 3.0 | 9.0 | 0.00 | 0.09 | 0.00 | 76 | 1014.0 |
| 20260507145503 | 57 | 116 | 3.0 | 6.0 | 0.00 | 0.09 | 0.00 | 77 | 1013.9 |
| 20260507145003 | 57 | 58 | 3.0 | 6.0 | 0.00 | 0.09 | 0.00 | 76 | 1013.8 |
| 20260507144002 | 57 | 68 | 1.0 | 3.0 | 0.00 | 0.09 | 0.00 | 76 | 1013.8 |
| 20260507143502 | 57 | 178 | 0.0 | 3.0 | 0.00 | 0.09 | 0.00 | 77 | 1013.7 |
| 20260507142503 | 57 | 274 | 2.0 | 5.0 | 0.00 | 0.09 | 0.00 | 77 | 1013.7 |
| 20260507142003 | 57 | 246 | 3.0 | 5.0 | 0.00 | 0.09 | 0.00 | 78 | 1013.7 |
| 20260507141503 | 58 | 219 | 0.0 | 1.0 | 0.00 | 0.09 | 0.00 | 78 | 1013.7 |
| 20260507141003 | 58 | 216 | 1.0 | 6.0 | 0.00 | 0.09 | 0.00 | 77 | 1013.9 |
| 20260507140503 | 58 | 155 | 2.0 | 5.0 | 0.00 | 0.09 | 0.00 | 77 | 1013.9 |
| 20260507140003 | 58 | 66 | 0.0 | 0.0 | 0.00 | 0.09 | 0.00 | 79 | 1013.5 |
| 20260507135502 | 58 | 66 | 0.0 | 0.0 | 0.00 | 0.09 | 0.00 | 79 | 1013.4 |
| 20260507135003 | 58 | 66 | 0.0 | 0.0 | 0.00 | 0.10 | 0.00 | 79 | 1013.5 |
| 20260507134003 | 58 | 66 | 0.0 | 0.0 | 0.00 | 0.10 | 0.00 | 78 | 1014.1 |
| 20260507133503 | 58 | 66 | 0.0 | 2.0 | 0.00 | 0.11 | 0.00 | 78 | 1014.1 |
| 20260507133003 | 58 | 286 | 2.0 | 3.0 | 0.00 | 0.11 | 0.00 | 79 | 1014.0 |
| 20260507132003 | 58 | 49 | 1.0 | 2.0 | 0.00 | 0.11 | 0.00 | 78 | 1014.0 |
| 20260507131502 | 58 | 234 | 3.0 | 7.0 | 0.00 | 0.11 | 0.00 | 79 | 1014.0 |
| 20260507131003 | 58 | 124 | 0.0 | 2.0 | 0.00 | 0.11 | 0.00 | 79 | 1014.2 |
| 20260507130503 | 58 | 181 | 2.0 | 6.0 | 0.00 | 0.11 | 0.00 | 79 | 1014.2 |
| 20260507125503 | 58 | 222 | 1.0 | 6.0 | 0.00 | 0.12 | 0.00 | 80 | 1013.8 |
| 20260507125003 | 58 | 130 | 0.0 | 3.0 | 0.00 | 0.12 | 0.00 | 79 | 1013.9 |
| 20260507124503 | 57 | 286 | 1.0 | 5.0 | 0.00 | 0.12 | 0.00 | 80 | 1014.0 |
| 20260507123003 | 57 | 304 | 2.0 | 6.0 | 0.00 | 0.12 | 0.00 | 80 | 1014.1 |
| 20260507122004 | 57 | 157 | 1.0 | 3.0 | 0.00 | 0.12 | 0.00 | 80 | 1014.0 |
| 20260507121503 | 57 | 272 | 1.0 | 6.0 | 0.00 | 0.12 | 0.00 | 80 | 1014.1 |
| 20260507120003 | 57 | 336 | 7.0 | 9.0 | 0.00 | 0.12 | 0.00 | 79 | 1014.1 |
| 20260507115503 | 57 | 310 | 3.0 | 6.0 | 0.00 | 0.12 | 0.00 | 80 | 1014.0 |
| 20260507114503 | 57 | 174 | 0.0 | 2.0 | 0.00 | 0.12 | 0.00 | 79 | 1013.9 |
| 20260507114003 | 57 | 7 | 1.0 | 6.0 | 0.00 | 0.12 | 0.00 | 78 | 1013.8 |
| 20260507113503 | 57 | 254 | 2.0 | 8.0 | 0.00 | 0.12 | 0.00 | 78 | 1013.8 |
| 20260507113003 | 57 | 355 | 1.0 | 2.0 | 0.00 | 0.12 | 0.00 | 79 | 1013.7 |
| 20260507112503 | 57 | 338 | 1.0 | 5.0 | 0.00 | 0.12 | 0.00 | 79 | 1013.5 |
| 20260507112003 | 57 | 1 | 0.0 | 1.0 | 0.00 | 0.12 | 0.00 | 79 | 1013.4 |
| 20260507111503 | 57 | 10 | 3.0 | 7.0 | 0.00 | 0.12 | 0.00 | 80 | 1013.5 |
| 20260507111003 | 57 | 50 | 2.0 | 5.0 | 0.00 | 0.12 | 0.00 | 81 | 1013.4 |
| 20260507110503 | 58 | 191 | 0.0 | 0.0 | 0.00 | 0.12 | 0.00 | 82 | 1013.3 |
| 20260507105503 | 57 | 191 | 0.0 | 0.0 | 0.00 | 0.12 | 0.00 | 82 | 1013.4 |
| 20260507105004 | 57 | 194 | 3.0 | 3.0 | 0.00 | 0.12 | 0.00 | 81 | 1013.4 |
| 20260507104503 | 57 | 263 | 3.0 | 7.0 | 0.00 | 0.12 | 0.00 | 82 | 1013.3 |
| 20260507104003 | 58 | 31 | 0.0 | 2.0 | 0.00 | 0.12 | 0.00 | 83 | 1013.2 |
| 20260507103503 | 58 | 13 | 2.0 | 5.0 | 0.00 | 0.12 | 0.00 | 82 | 1013.1 |
| 20260507103003 | 58 | 338 | 2.0 | 5.0 | 0.00 | 0.12 | 0.00 | 82 | 1013.1 |
| 20260507102503 | 58 | 63 | 3.0 | 5.0 | 0.00 | 0.12 | 0.00 | 82 | 1013.2 |
| 20260507102003 | 58 | 2 | 2.0 | 6.0 | 0.00 | 0.12 | 0.00 | 82 | 1013.1 |
| 20260507101503 | 58 | 291 | 0.0 | 1.0 | 0.00 | 0.12 | 0.00 | 82 | 1013.2 |
| 20260507101003 | 58 | 337 | 3.0 | 9.0 | 0.00 | 0.12 | 0.00 | 82 | 1013.3 |
| 20260507100503 | 58 | 334 | 0.0 | 2.0 | 0.00 | 0.12 | 0.00 | 82 | 1013.2 |
| 20260507100003 | 58 | 224 | 4.0 | 7.0 | 0.00 | 0.12 | 0.00 | 83 | 1013.1 |
| 20260507095004 | 58 | 47 | 1.0 | 5.0 | 0.00 | 0.12 | 0.00 | 83 | 1013.0 |
| 20260507094503 | 58 | 39 | 1.0 | 6.0 | 0.00 | 0.12 | 0.00 | 84 | 1013.3 |
| 20260507094003 | 58 | 182 | 1.0 | 5.0 | 0.00 | 0.12 | 0.00 | 84 | 1013.4 |
| 20260507093503 | 58 | 39 | 3.0 | 7.0 | 0.00 | 0.12 | 0.00 | 84 | 1012.8 |
| 20260507093003 | 58 | 6 | 8.0 | 8.0 | 0.00 | 0.12 | 0.00 | 84 | 1013.0 |
| 20260507092004 | 59 | 237 | 0.0 | 0.0 | 0.00 | 0.12 | 0.00 | 85 | 1013.4 |
| 20260507091503 | 59 | 237 | 0.0 | 0.0 | 0.00 | 0.12 | 0.00 | 85 | 1013.2 |
| 20260507091003 | 59 | 237 | 0.0 | 0.0 | 0.00 | 0.12 | 0.00 | 84 | 1013.1 |
| 20260507090004 | 59 | 237 | 0.0 | 0.0 | 0.00 | 0.12 | 0.00 | 83 | 1012.4 |
| 20260507085503 | 59 | 237 | 0.0 | 0.0 | 0.00 | 0.12 | 0.00 | 83 | 1012.4 |
| 20260507085003 | 59 | 237 | 1.0 | 3.0 | 0.00 | 0.12 | 0.00 | 82 | 1012.7 |
| 20260507084503 | 59 | 257 | 0.0 | 0.0 | 0.00 | 0.12 | 0.00 | 83 | 1012.6 |
| 20260507084003 | 59 | 257 | 0.0 | 3.0 | 0.00 | 0.12 | 0.00 | 84 | 1013.0 |
| 20260507083503 | 59 | 306 | 1.0 | 5.0 | 0.00 | 0.12 | 0.00 | 85 | 1013.0 |
| 20260507082503 | 59 | 253 | 1.0 | 3.0 | 0.00 | 0.12 | 0.00 | 86 | 1013.0 |
| 20260507082003 | 60 | 231 | 3.0 | 3.0 | 0.00 | 0.12 | 0.00 | 85 | 1013.0 |
| 20260507081503 | 60 | 233 | 0.0 | 2.0 | 0.00 | 0.12 | 0.00 | 86 | 1013.0 |
| 20260507081003 | 60 | 270 | 1.0 | 2.0 | 0.00 | 0.12 | 0.00 | 85 | 1013.0 |
| 20260507080503 | 60 | 284 | 0.0 | 2.0 | 0.00 | 0.12 | 0.00 | 86 | 1013.0 |
| 20260507080003 | 60 | 295 | 4.0 | 3.0 | 0.00 | 0.12 | 0.00 | 86 | 1013.3 |
| 20260507074504 | 60 | 274 | 0.0 | 0.0 | 0.00 | 0.12 | 0.00 | 85 | 1013.2 |
| 20260507074004 | 60 | 274 | 0.0 | 0.0 | 0.00 | 0.12 | 0.00 | 85 | 1013.3 |
| 20260507073503 | 60 | 274 | 0.0 | 0.0 | 0.00 | 0.12 | 0.00 | 85 | 1013.3 |
| 20260507073003 | 60 | 274 | 0.0 | 0.0 | 0.00 | 0.12 | 0.00 | 85 | 1013.1 |
| 20260507072003 | 60 | 274 | 0.0 | 0.0 | 0.00 | 0.12 | 0.00 | 85 | 1013.2 |
| 20260507071504 | 60 | 274 | 0.0 | 0.0 | 0.00 | 0.12 | 0.00 | 84 | 1013.1 |
| 20260507071004 | 60 | 274 | 1.0 | 5.0 | 0.00 | 0.12 | 0.00 | 83 | 1012.8 |
| 20260507070005 | 61 | 291 | 0.0 | 6.0 | 0.00 | 0.12 | 0.00 | 85 | 1012.8 |
| 20260507065503 | 61 | 249 | 1.0 | 5.0 | 0.00 | 0.12 | 0.00 | 86 | 1013.2 |
| 20260507065003 | 60 | 326 | 0.0 | 3.0 | 0.00 | 0.12 | 0.00 | 87 | 1012.7 |
| 20260507064503 | 61 | 220 | 3.0 | 8.0 | 0.00 | 0.12 | 0.00 | 87 | 1012.8 |
| 20260507063503 | 60 | 359 | 4.0 | 12.0 | 0.00 | 0.12 | 0.00 | 86 | 1013.1 |
| 20260507063003 | 60 | 18 | 5.0 | 10.0 | 0.00 | 0.12 | 0.00 | 86 | 1013.2 |
| 20260507062503 | 60 | 14 | 0.0 | 0.0 | 0.00 | 0.12 | 0.00 | 88 | 1012.8 |
| 20260507062003 | 60 | 17 | 1.0 | 2.0 | 0.00 | 0.12 | 0.00 | 88 | 1012.7 |
| 20260507061503 | 60 | 288 | 0.0 | 0.0 | 0.00 | 0.12 | 0.00 | 88 | 1012.8 |
| 20260507061004 | 60 | 288 | 0.0 | 2.0 | 0.00 | 0.12 | 0.00 | 89 | 1012.6 |
| 20260507060503 | 60 | 7 | 3.0 | 7.0 | 0.00 | 0.12 | 0.00 | 89 | 1012.5 |
| 20260507060003 | 60 | 41 | 6.0 | 8.0 | 0.00 | 0.12 | 0.00 | 89 | 1012.7 |
| 20260507055503 | 61 | 30 | 4.0 | 7.0 | 0.00 | 0.12 | 0.00 | 89 | 1013.2 |
| 20260507055004 | 60 | 48 | 0.0 | 0.0 | 0.00 | 0.12 | 0.00 | 89 | 1013.2 |
| 20260507054503 | 60 | 48 | 0.0 | 2.0 | 0.00 | 0.12 | 0.00 | 89 | 1013.4 |
| 20260507054003 | 60 | 64 | 2.0 | 3.0 | 0.00 | 0.12 | 0.00 | 89 | 1013.2 |